This is the latest recevied weather packets stored in our database for station/object OE6ACM-10. If no packets are shown the sender has not sent any weather packets the latest 10 day(s).
| Time | Temp. | Humidity | Pressure | Rain* | Wind** | Luminosity | Snow |
|---|---|---|---|---|---|---|---|
| 1777489725 | 18.33° C | 84% | 931.6 hPa | - | - | - | - |
| 1777489425 | 18.89° C | 84% | 931.6 hPa | - | - | - | - |
| 1777489125 | 18.89° C | 80% | 931.5 hPa | - | - | - | - |
| 1777488825 | 19.44° C | 85% | 931.5 hPa | - | - | - | - |
| 1777488525 | 19.44° C | 79% | 931.4 hPa | - | - | - | - |
| 1777488225 | 20° C | 80% | 931.2 hPa | - | - | - | - |
| 1777487925 | 20° C | 75% | 931.1 hPa | - | - | - | - |
| 1777487625 | 20.56° C | 76% | 931 hPa | - | - | - | - |
| 1777487325 | 20.56° C | 76% | 930.9 hPa | - | - | - | - |
| 1777487025 | 21.11° C | 71% | 930.8 hPa | - | - | - | - |
| 1777486725 | 21.11° C | 68% | 930.8 hPa | - | - | - | - |
| 1777486425 | 21.11° C | 68% | 930.8 hPa | - | - | - | - |
| 1777486125 | 21.67° C | 70% | 930.7 hPa | - | - | - | - |
| 1777485825 | 22.22° C | 73% | 930.6 hPa | - | - | - | - |
| 1777485525 | 22.22° C | 65% | 930.6 hPa | - | - | - | - |
| 1777485225 | 22.78° C | 66% | 930.4 hPa | - | - | - | - |
| 1777484925 | 22.78° C | 62% | 930.3 hPa | - | - | - | - |
| 1777484625 | 23.33° C | 61% | 930.2 hPa | - | - | - | - |
| 1777484325 | 23.89° C | 58% | 930.2 hPa | - | - | - | - |
| 1777484025 | 23.33° C | 60% | 930.1 hPa | - | - | - | - |
| 1777483725 | 23.33° C | 54% | 930 hPa | - | - | - | - |
| 1777483425 | 23.89° C | 52% | 929.9 hPa | - | - | - | - |
| 1777483125 | 23.89° C | 54% | 929.7 hPa | - | - | - | - |
| 1777482825 | 24.44° C | 51% | 929.7 hPa | - | - | - | - |
| 1777482525 | 26.11° C | 48% | 929.6 hPa | - | - | - | - |
* Rain since midnight (hover to see other rain measurements)
** Current wind speed in m/s (hover to see current wind gust speed)